Location: Palomar Mountain Lodge
(33.3110°N, 116.8495°W)
Time: 15:24:50
(UTC-07:00)

USA 238 - Pass Details

Date: 19 May 2017
Orbit: 1088 x 1124 km, 63.4° (Epoch: 14 May)

Event Time Altitude Azimuth Distance (km) Brightness Sun altitude
Rises 20:52:42 0° 324° (NW) 3,934 8.2 -13.3°
Reaches altitude 10° 20:55:26 10° 320° (NW) 2,978 7.3 -13.8°
Maximum altitude 21:02:17 54° 245° (WSW) 1,328 4.4 -14.9°
Enters shadow 21:08:57 11° 171° (S) 2,911 5.6 -16.0°
